Location: Kouchibouguac National Park
(46.8081°N, 64.9088°W)
Time: 21:15:13
(UTC-03:00)

Daily predictions for brighter satellites

Satellite Brightness Start Highest point End
(mag) Time Altitude Azimuth Time Altitude Azimuth Time Altitude Azimuth
Meteor 2-21 Rocket 4.5 19:56:13 10° S 20:02:18 82° E 20:08:29 10° N
Cosmos 1726 Rocket 4.1 19:59:13 10° SSW 20:03:32 65° WNW 20:07:52 10° N
Cosmos 2228 2.9 20:01:16 10° S 20:05:30 80° E 20:09:46 10° NNE
RESURS DK-1 3.3 20:02:26 10° NNW 20:06:10 31° NE 20:09:52 10° ESE
CZ-3B DEB 3.6 19:55:23 10° SSW 20:06:20 42° SE 20:11:42 10° ENE
Cosmos 2082 Rocket 3.7 20:02:42 10° N 20:06:51 20° NE 20:10:59 10° E
Cosmos 1898 Rocket 3.7 20:06:00 10° S 20:11:06 49° ESE 20:16:11 10° NNE
COSMOS 2406 3.3 20:05:32 10° NNW 20:11:20 89° WSW 20:17:04 10° SSE
Cosmos 192 4.4 20:07:32 10° NNW 20:12:30 87° WSW 20:17:26 10° SSE
Cosmos 2344 4.1 20:05:39 10° S 20:12:38 40° ESE 20:20:21 10° NE
Cosmos 2084 Rocket 3.2 20:11:09 10° SSW 20:15:11 68° SE 20:19:04 10° NE
Envisat 4.1 20:12:23 10° ESE 20:16:26 25° ENE 20:20:31 10° N
Cosmos 1766 4.1 20:13:09 10° SSE 20:16:27 27° E 20:19:47 10° NNE
Cosmos 2098 4.1 20:16:09 10° S 20:19:30 72° E 20:22:30 10° NNE
Geosat 4.3 20:23:52 10° NE 20:28:42 45° ESE 20:33:30 10° S
USA 267 3.9 20:24:40 10° E 20:30:47 44° NNE 20:36:55 10° NW
Cosmos 1818 4.4 20:26:11 10° NNW 20:31:13 36° NE 20:35:16 15° ESE
Cosmos 1844 3.9 20:25:40 10° S 20:31:14 53° ESE 20:36:52 10° NE
Resurs 1-3 3.5 20:28:03 10° SSE 20:32:25 74° ENE 20:36:49 10° N
Helios 1B rocket 3.3 20:28:51 10° NE 20:32:26 28° E 20:36:01 10° SSE
Helios 1A 3.4 20:28:44 10° SE 20:32:40 43° ENE 20:36:39 10° N
Cosmos 1544 4.4 20:30:15 10° SE 20:32:59 20° E 20:35:44 10° NE
Meteor 1-4 Rocket 4.3 20:34:07 14° ENE 20:34:07 14° ENE 20:35:28 10° NE
Cosmos 858 Rocket 4.5 20:31:37 10° S 20:36:51 71° ESE 20:42:08 10° NNE
HJ-1C 4.4 20:36:31 10° S 20:39:49 49° W 20:43:09 10° NNW
Cosmos 1937 Rocket 3.4 20:40:30 10° S 20:45:41 70° ESE 20:50:59 10° NNE
Lacrosse 4 Rocket 1.2 20:41:55 10° SSW 20:45:57 73° ESE 20:50:01 10° NE
ERS-1 Rocket 4.1 20:43:35 17° ESE 20:46:09 26° ENE 20:50:16 10° N
COSMOS 2487 4.1 20:44:17 10° NNE 20:46:49 18° ENE 20:47:27 17° ENE
SL-27 R/B 2.4 20:43:34 10° NNW 20:47:08 78° ENE 20:50:24 12° SSE
CZ-2D R/B 3.2 20:43:55 10° SSE 20:47:47 88° WSW 20:51:42 10° NNW
Cosmos 2298 Rocket 4.0 20:42:47 10° SSW 20:48:05 87° ESE 20:53:27 10° NNE
Meteor 1-22 Rocket 4.3 20:42:22 10° S 20:48:07 73° E 20:54:08 10° NNE
Meteor 1-29 3.8 20:45:40 10° NE 20:48:45 30° E 20:51:19 13° SSE
Cosmos 1934 Rocket 3.9 20:44:15 10° S 20:50:23 79° E 20:56:29 10° N
Tiangong 1 2.3 20:50:51 10° WSW 20:53:26 28° SSW 20:54:27 22° SSE
Cosmos 1805 3.7 20:51:14 10° SSE 20:54:50 38° E 20:58:29 10° NNE
Cosmos 1437 Rocket 3.2 20:51:51 10° SSW 20:55:49 66° WNW 20:59:53 10° N
Okean 3 Rocket 3.5 20:51:30 10° N 20:55:52 64° ENE 21:00:08 11° SSE
Cosmos 1340 Rocket 4.4 20:53:35 10° NNE 20:56:30 19° ENE 20:56:40 19° ENE
Cosmos 1408 Rocket 4.4 20:53:23 10° N 20:57:26 32° ENE 20:59:02 25° ESE
Cosmos 1674 3.6 20:55:34 10° NNE 20:58:50 27° ENE 20:59:18 26° E
ALOS 3.9 20:56:31 10° SSW 21:00:47 35° W 21:05:06 10° NNW
USA 186 1.1 20:59:43 26° S 21:00:51 69° W 21:03:07 10° NNW
CZ-4B DEB 2.6 21:00:39 29° SE 21:02:01 61° ENE 21:05:07 10° N
Lacrosse 5 2.3 21:01:10 10° SSW 21:05:53 40° SE 21:08:39 22° ENE
Abrixas 2.2 21:03:18 10° WNW 21:06:09 81° NNE 21:06:39 55° E
Cosmos 1758 3.4 21:08:08 15° SSE 21:11:10 50° E 21:15:03 10° NNE
SPOT 5 4.2 21:10:04 23° E 21:11:18 26° ENE 21:15:38 10° N
In-Cosmos 22 4.2 21:09:03 10° NNW 21:14:25 78° W 21:19:41 10° S
Cosmos 1939 Rocket 2.9 21:14:50 30° SE 21:16:43 65° ENE 21:20:51 10° N
Cosmos 1844 Rocket 3.4 21:12:34 10° SW 21:18:06 56° WNW 21:23:40 10° NNE
Resurs 01 Rocket 3.4 21:14:36 10° SSW 21:18:34 33° W 21:22:35 10° NNW
GP-B 3.0 21:16:20 19° SSE 21:19:23 67° E 21:23:49 10° N
Cosmos 1953 2.3 21:19:44 21° S 21:22:19 62° E 21:26:22 10° NNE
CZ-2C R/B 3.9 21:21:51 10° NNW 21:23:43 20° WNW 21:25:05 10° SW
Cosmos 2100 Rocket 4.3 21:20:13 20° SSE 21:24:20 45° E 21:30:21 10° NNE
Cosmos 2278 Rocket 2.1 21:18:53 10° SSW 21:24:33 78° ESE 21:30:15 10° NNE
Cosmos 1833 Rocket 2.9 21:19:13 10° NNW 21:24:44 54° ENE 21:26:46 36° ESE
BREEZE-M DEB (TANK) 3.6 21:21:54 10° SW 21:25:07 60° SE 21:35:03 10° ENE
Cosmos 1605 Rocket 4.1 21:19:52 10° S 21:26:07 82° W 21:32:31 10° N
YAOGAN 6 2.9 21:35:03 53° NE 21:35:03 53° NE 21:38:24 10° N
Cosmos 2297 3.9 21:30:14 10° S 21:35:38 46° ESE 21:41:07 10° NE
H-2A R/B 3.4 21:36:31 24° ENE 21:36:31 24° ENE 21:40:42 10° N
Cosmos 1766 Rocket 3.5 21:34:06 10° N 21:38:36 84° E 21:39:53 47° SSE
USA 215 3.1 21:32:46 10° NE 21:39:19 73° SE 21:45:51 10° SW
Cosmos 1802 Rocket 4.2 21:38:54 39° SE 21:40:22 47° E 21:46:13 10° NNE
CZ-3 Stage 3 4.2 21:13:57 10° WSW 21:41:17 35° SSW 21:45:16 25° SSE
Lacrosse 5 rocket 2.1 21:40:01 10° NW 21:43:44 36° NNE 21:43:46 36° NNE
RESURS DK-1 4.1 21:40:35 10° NW 21:44:10 29° WSW 21:46:35 17° SSW
Cosmos 1076 Rocket 3.9 21:41:08 10° NNW 21:45:20 59° W 21:47:14 30° SSW
Cosmos 2061 Rocket 4.1 21:43:38 33° SSE 21:46:23 57° E 21:52:40 10° NNE
MetOp-B 4.2 21:46:33 50° ESE 21:47:22 56° ENE 21:52:37 10° N
Timation 2 Rocket 3.9 21:41:14 10° NNW 21:47:41 75° ENE 21:49:37 46° SE
Timation 1 Rocket 4.2 21:42:31 10° SSW 21:48:28 68° ESE 21:54:28 10° NNE
Terra 3.8 21:51:01 16° NE 21:51:01 16° NE 21:52:54 10° NNE
Cosmos 158 Rocket 3.8 21:45:11 10° NNW 21:50:17 84° ENE 21:51:21 57° SSE
Cosmos 2082 Rocket 2.1 21:46:01 10° NNW 21:51:46 89° WSW 21:53:24 49° SSE
Envisat 3.8 21:51:33 18° S 21:55:10 49° W 22:00:07 10° NNW
Cosmos 1125 Rocket 3.4 21:56:13 10° SSW 22:01:25 89° ESE 22:06:41 10° NNE
Cosmos 1048 Rocket 4.2 21:58:25 10° NNW 22:03:31 64° WSW 22:04:42 48° SSW
Cosmos 1271 Rocket 4.3 22:06:25 28° NNE 22:06:25 28° NNE 22:08:26 10° NNE
Helios 1B rocket 4.4 22:04:08 10° N 22:07:43 29° WNW 22:11:17 10° SW
Meteor 1-4 Rocket 3.9 22:08:19 36° WNW 22:08:23 36° WNW 22:11:39 10° N
Cosmos-2242 3.3 22:10:17 61° NNW 22:10:17 61° NNW 22:13:58 10° N
Cosmos 1743 Rocket 3.9 22:06:21 10° N 22:10:03 62° N 22:10:03 62° N
USA 267 3.1 22:11:56 57° ESE 22:13:27 89° NNE 22:20:02 10° NW
Cosmos 1500 Rocket 4.4 22:09:45 10° N 22:12:42 41° N 22:12:42 41° N
H-2A R/B 3.9 22:16:32 20° NNE 22:16:32 20° NNE 22:18:06 10° N
Cosmos 1818 4.2 22:09:43 10° NW 22:14:57 48° WSW 22:15:57 43° SSW
SPOT 1/Viking Rocket 3.8 22:20:19 56° NNE 22:20:19 56° NNE 22:24:45 10° N
CZ-3B DEB 2.5 22:11:18 10° WSW 22:19:39 59° NNW 22:20:48 46° NNE
COSMOS 2487 4.4 22:19:08 10° NW 22:21:24 29° WNW 22:21:24 29° WNW
ERS-1 Rocket 3.8 22:23:34 40° SW 22:24:41 47° W 22:29:34 10° NNW
Lacrosse 4 Rocket 4.2 22:22:29 10° W 22:25:09 17° NW 22:27:50 10° N
ARGOS 3.1 22:25:37 80° N 22:25:37 80° N 22:30:44 10° NNW
Cosmos 2251 Rocket 3.8 22:20:13 10° NNW 22:24:45 58° NNE 22:24:45 58° NNE
Cosmos 2344 4.4 22:19:09 10° WSW 22:26:46 55° NW 22:35:54 10° NE
Cosmos 1459 Rocket 4.2 22:24:00 27° SSW 22:27:33 69° W 22:33:45 10° N
Cosmos 2173 Rocket 4.2 22:25:17 31° SSW 22:28:19 69° W 22:34:36 10° N
Cosmos 1340 Rocket 4.4 22:29:23 10° NNW 22:32:19 35° WNW 22:32:19 35° WNW
MetOp-A 4.4 22:33:00 59° WSW 22:33:19 61° WSW 22:38:38 10° NNW
Lacrosse 5 2.8 22:43:51 10° WSW 22:47:58 46° WNW 22:47:58 46° WNW
SPOT 5 3.7 22:49:19 53° W 22:49:19 53° W 22:54:16 10° NNW
Cosmos 2016 Rocket 4.5 22:58:20 50° WSW 22:59:19 56° WNW 23:05:25 10° N
Cosmos 1725 Rocket 4.2 23:05:07 65° NNW 23:05:07 65° NNW 23:10:36 10° N
Cosmos 1833 Rocket 4.3 23:03:44 10° NW 23:08:18 26° WSW 23:08:29 26° WSW
Cosmos 2278 Rocket 4.4 23:04:54 10° W 23:09:18 22° NW 23:13:43 10° N
Tsikada Rocket 4.4 23:04:03 10° NNW 23:09:40 58° WNW 23:09:40 58° WNW
H-2A R/B 3.2 23:17:09 42° NW 23:17:09 42° NW 23:20:51 10° NNW
USA 215 3.9 23:18:01 22° NE 23:22:11 50° NNW 23:28:26 10° W
Lacrosse 5 rocket 4.5 23:19:21 10° WNW 23:19:28 11° WNW 23:19:28 11° WNW
Terra 3.9 23:29:53 25° NNW 23:29:53 25° NNW 23:31:52 10° NNW
